Find Westar 1

NORAD ID: 7250 Int'l Des: 1974-022 Owner: WUTC Country: US operational
HEOCIRCULAR

Live-Position

3D-Globus wird geladen...

Über Westar 1

Beschreibung wird geladen...

Nächste Überflüge

Passes for default location (London). Set your location on the main map for personalized predictions.

Höhenverlauf

Loading altitude history...

Zweizeiliger Elementsatz

1 07250U 74022A 26106.08864167 .00000029 00000-0 00000-0 0 9995
2 07250 7.2484 298.4650 0006183 44.6626 321.9701 0.99888055121718
Epoch: 16. Apr. 2026 • Age: 12 hours

Aktueller Status

Höhe 35913.8 km
Geschwindigkeit 3.07 km/s
Subsatellitenpunkt -0.52°S, 68.28°E
Typ other

Most Searched